Starlink 4567

operational
NORAD ID: 53970 Int'l Des: 2022-125 Owner: SPXS Country: US Constellation: starlink
LEOCIRCULAR

About Starlink 4567

Description loading...

Live Position

Loading 3D Globe...

Upcoming Passes

Altitude History

Altitude vs Time

uPlot chart will show altitude changes over time

Two-Line Element Set

1 53970U 22125G 25257.37074052 -.00000900 00000-0 -38469-4 0 9990
2 53970 53.2169 290.6925 0001118 89.6045 270.5075 15.08846929162780
Epoch: Sep 14, 2025 • Age: 27 hours

Current Status

Altitude 539.7 km
Velocity 7.60 km/s
Sub-Earth Point 14.55°N, 121.99°E
Launch Date Oct 5, 2022
Age 2.9 years
Type internet

Technical Details

Classification Payload
Mass 305.00 kg
Dry Mass 290.00 kg
Total Mass 305.00 kg
Length 0.20 m
Diameter 2.80 m
Span 9.00 m
Shape Box + pan
Manufacturer SPXS
Bus Type Starlink
Phase Status In Orbit
Owner/State SPXS/US

Large Constellations

Loading constellations...